| time (UTC) | temp F | wind direction | speed MPH | gust MPH | rain 1hr in | rain 24hr in | rain mn in | humidity % | barometer mb |
| 20260507055517 | 53 | 74 | 0.0 | 5.0 | 0.00 | 0.01 | 0.00 | 87 | 1017.1 |
| 20260507055015 | 53 | 0 | 0.0 | 4.0 | 0.00 | 0.01 | 0.00 | 86 | 1017.2 |
| 20260507054538 | 53 | 61 | 0.0 | 5.0 | 0.00 | 0.01 | 0.00 | 86 | 1017.1 |
| 20260507054015 | 53 | 0 | 0.0 | 5.0 | 0.00 | 0.01 | 0.00 | 86 | 1017.1 |
| 20260507053516 | 53 | 30 | 1.0 | 5.0 | 0.00 | 0.01 | 0.00 | 86 | 1017.1 |
| 20260507053031 | 53 | 322 | 0.0 | 3.0 | 0.00 | 0.01 | 0.00 | 86 | 1017.0 |
| 20260507052516 | 53 | 31 | 0.0 | 5.0 | 0.00 | 0.01 | 0.00 | 86 | 1017.0 |
| 20260507052016 | 54 | 0 | 1.0 | 8.0 | 0.00 | 0.01 | 0.00 | 86 | 1017.1 |
| 20260507051528 | 54 | 0 | 1.0 | 8.0 | 0.00 | 0.01 | 0.00 | 86 | 1017.0 |
| 20260507051015 | 54 | 355 | 1.0 | 6.0 | 0.00 | 0.01 | 0.00 | 86 | 1017.0 |
| 20260507050515 | 54 | 0 | 0.0 | 4.0 | 0.00 | 0.01 | 0.00 | 85 | 1016.8 |
| 20260507050037 | 54 | 63 | 1.0 | 4.0 | 0.00 | 0.01 | 0.00 | 86 | 1016.8 |
| 20260507045516 | 54 | 61 | 0.0 | 6.0 | 0.00 | 0.01 | 0.01 | 86 | 1016.8 |
| 20260507045017 | 54 | 0 | 0.0 | 6.0 | 0.00 | 0.01 | 0.01 | 85 | 1016.9 |
| 20260507044538 | 54 | 46 | 1.0 | 6.0 | 0.00 | 0.01 | 0.01 | 85 | 1016.9 |
| 20260507044015 | 54 | 0 | 0.0 | 5.0 | 0.00 | 0.01 | 0.01 | 85 | 1016.9 |
| 20260507043515 | 54 | 55 | 1.0 | 5.0 | 0.00 | 0.01 | 0.01 | 85 | 1017.0 |
| 20260507043032 | 54 | 75 | 0.0 | 6.0 | 0.00 | 0.01 | 0.01 | 85 | 1017.0 |
| 20260507042517 | 54 | 78 | 1.0 | 6.0 | 0.00 | 0.01 | 0.01 | 85 | 1017.0 |
| 20260507042016 | 54 | 0 | 0.0 | 4.0 | 0.00 | 0.01 | 0.01 | 85 | 1017.1 |
| 20260507041539 | 54 | 165 | 0.0 | 8.0 | 0.00 | 0.01 | 0.01 | 86 | 1017.1 |
| 20260507041016 | 54 | 355 | 1.0 | 8.0 | 0.00 | 0.01 | 0.01 | 86 | 1017.0 |
| 20260507040516 | 54 | 0 | 1.0 | 6.0 | 0.00 | 0.01 | 0.01 | 86 | 1017.1 |
| 20260507040028 | 54 | 0 | 0.0 | 5.0 | 0.00 | 0.01 | 0.01 | 86 | 1017.0 |
| 20260507035516 | 54 | 40 | 0.0 | 4.0 | 0.00 | 0.01 | 0.01 | 85 | 1017.1 |
| 20260507035015 | 54 | 0 | 0.0 | 4.0 | 0.00 | 0.01 | 0.01 | 85 | 1017.0 |
| 20260507034532 | 54 | 0 | 0.0 | 4.0 | 0.00 | 0.01 | 0.01 | 85 | 1017.1 |
| 20260507034015 | 54 | 0 | 0.0 | 4.0 | 0.00 | 0.01 | 0.01 | 85 | 1017.2 |
| 20260507033515 | 54 | 0 | 0.0 | 4.0 | 0.00 | 0.01 | 0.01 | 85 | 1017.1 |
| 20260507033035 | 55 | 0 | 0.0 | 3.0 | 0.00 | 0.01 | 0.01 | 85 | 1017.1 |
| 20260507032519 | 55 | 5 | 0.0 | 4.0 | 0.00 | 0.01 | 0.01 | 85 | 1017.2 |
| 20260507032015 | 55 | 5 | 0.0 | 4.0 | 0.00 | 0.01 | 0.01 | 85 | 1017.0 |
| 20260507031532 | 55 | 346 | 0.0 | 4.0 | 0.00 | 0.01 | 0.01 | 85 | 1017.1 |
| 20260507031016 | 55 | 0 | 0.0 | 4.0 | 0.00 | 0.01 | 0.01 | 85 | 1016.9 |
| 20260507030516 | 55 | 0 | 0.0 | 2.0 | 0.00 | 0.01 | 0.01 | 85 | 1016.8 |
| 20260507030033 | 55 | 0 | 0.0 | 4.0 | 0.00 | 0.01 | 0.01 | 85 | 1016.8 |
| 20260507025516 | 55 | 0 | 0.0 | 4.0 | 0.00 | 0.01 | 0.01 | 84 | 1016.7 |
| 20260507025014 | 55 | 13 | 0.0 | 4.0 | 0.00 | 0.01 | 0.01 | 84 | 1016.7 |
| 20260507024530 | 55 | 0 | 0.0 | 3.0 | 0.00 | 0.01 | 0.01 | 84 | 1016.7 |
| 20260507024015 | 55 | 36 | 0.0 | 3.0 | 0.00 | 0.01 | 0.01 | 84 | 1016.4 |
| 20260507023520 | 55 | 0 | 0.0 | 3.0 | 0.00 | 0.01 | 0.01 | 84 | 1016.5 |
| 20260507023030 | 55 | 0 | 0.0 | 3.0 | 0.00 | 0.01 | 0.01 | 85 | 1016.5 |
| 20260507022516 | 56 | 0 | 0.0 | 2.0 | 0.00 | 0.01 | 0.01 | 84 | 1016.5 |
| 20260507022014 | 56 | 0 | 0.0 | 2.0 | 0.00 | 0.01 | 0.01 | 84 | 1016.6 |
| 20260507021532 | 56 | 0 | 0.0 | 1.0 | 0.00 | 0.01 | 0.01 | 84 | 1016.4 |
| 20260507021018 | 56 | 0 | 0.0 | 1.0 | 0.00 | 0.01 | 0.01 | 84 | 1016.3 |
| 20260507020515 | 57 | 0 | 0.0 | 2.0 | 0.00 | 0.01 | 0.01 | 83 | 1016.3 |
| 20260507020036 | 57 | 0 | 0.0 | 3.0 | 0.00 | 0.01 | 0.01 | 82 | 1016.2 |
| 20260507015514 | 57 | 0 | 0.0 | 3.0 | 0.00 | 0.01 | 0.01 | 83 | 1016.1 |
| 20260507015016 | 57 | 0 | 0.0 | 3.0 | 0.00 | 0.01 | 0.01 | 84 | 1015.9 |
| 20260507014540 | 57 | 0 | 0.0 | 2.0 | 0.00 | 0.01 | 0.01 | 85 | 1015.8 |
| 20260507014015 | 57 | 0 | 0.0 | 2.0 | 0.00 | 0.01 | 0.01 | 85 | 1015.6 |
| 20260507013518 | 58 | 0 | 0.0 | 4.0 | 0.00 | 0.01 | 0.01 | 85 | 1015.6 |
| 20260507013032 | 57 | 5 | 1.0 | 4.0 | 0.00 | 0.01 | 0.01 | 85 | 1015.6 |
| 20260507012515 | 57 | 0 | 1.0 | 2.0 | 0.00 | 0.01 | 0.01 | 85 | 1015.4 |
| 20260507012015 | 58 | 0 | 0.0 | 1.0 | 0.00 | 0.01 | 0.01 | 85 | 1015.3 |
| 20260507011530 | 58 | 0 | 0.0 | 1.0 | 0.00 | 0.01 | 0.01 | 84 | 1015.2 |
| 20260507011014 | 58 | 0 | 0.0 | 1.0 | 0.00 | 0.01 | 0.01 | 83 | 1015.2 |
| 20260507010515 | 59 | 0 | 0.0 | 1.0 | 0.00 | 0.01 | 0.01 | 82 | 1015.1 |
| 20260507010030 | 59 | 0 | 0.0 | 3.0 | 0.00 | 0.01 | 0.01 | 81 | 1015.0 |
| 20260507005515 | 60 | 0 | 0.0 | 3.0 | 0.00 | 0.01 | 0.01 | 81 | 1014.9 |
| 20260507005014 | 60 | 0 | 0.0 | 2.0 | 0.00 | 0.01 | 0.01 | 80 | 1014.7 |
| 20260507004535 | 61 | 0 | 0.0 | 2.0 | 0.00 | 0.01 | 0.01 | 79 | 1014.7 |
| 20260507004015 | 61 | 0 | 0.0 | 2.0 | 0.00 | 0.01 | 0.01 | 79 | 1014.6 |
| 20260507003515 | 62 | 0 | 0.0 | 1.0 | 0.00 | 0.01 | 0.01 | 77 | 1014.6 |
| 20260507003033 | 62 | 0 | 0.0 | 1.0 | 0.00 | 0.01 | 0.01 | 76 | 1014.6 |
| 20260507002514 | 63 | 107 | 0.0 | 1.0 | 0.00 | 0.01 | 0.01 | 75 | 1014.5 |
| 20260507002015 | 63 | 0 | 0.0 | 2.0 | 0.00 | 0.01 | 0.01 | 75 | 1014.5 |
| 20260507001529 | 64 | 0 | 0.0 | 2.0 | 0.00 | 0.01 | 0.01 | 73 | 1014.5 |
| 20260507001014 | 64 | 0 | 0.0 | 2.0 | 0.00 | 0.01 | 0.01 | 73 | 1014.5 |
| 20260507000514 | 64 | 0 | 0.0 | 4.0 | 0.00 | 0.01 | 0.01 | 72 | 1014.4 |
| 20260507000030 | 65 | 0 | 0.0 | 4.0 | 0.00 | 0.01 | 0.01 | 71 | 1014.4 |
| 20260506235515 | 65 | 36 | 1.0 | 6.0 | 0.00 | 0.01 | 0.01 | 70 | 1014.3 |
| 20260506235014 | 65 | 342 | 1.0 | 6.0 | 0.00 | 0.01 | 0.01 | 69 | 1014.3 |
| 20260506234537 | 65 | 63 | 1.0 | 4.0 | 0.00 | 0.01 | 0.01 | 70 | 1014.3 |
| 20260506234016 | 65 | 89 | 1.0 | 3.0 | 0.00 | 0.01 | 0.01 | 71 | 1014.2 |
| 20260506233516 | 65 | 65 | 0.0 | 3.0 | 0.00 | 0.01 | 0.01 | 71 | 1014.2 |
| 20260506233029 | 65 | 0 | 0.0 | 3.0 | 0.00 | 0.01 | 0.01 | 70 | 1014.2 |
| 20260506232515 | 65 | 0 | 0.0 | 4.0 | 0.00 | 0.01 | 0.01 | 69 | 1014.2 |
| 20260506232018 | 65 | 0 | 1.0 | 7.0 | 0.00 | 0.01 | 0.01 | 69 | 1014.2 |
| 20260506231544 | 65 | 61 | 1.0 | 7.0 | 0.00 | 0.01 | 0.01 | 71 | 1014.2 |
| 20260506231015 | 64 | 0 | 0.0 | 4.0 | 0.00 | 0.01 | 0.01 | 71 | 1014.1 |
| 20260506230517 | 64 | 76 | 1.0 | 4.0 | 0.00 | 0.01 | 0.01 | 71 | 1014.0 |
| 20260506230043 | 64 | 73 | 0.0 | 6.0 | 0.00 | 0.01 | 0.01 | 71 | 1014.0 |
| 20260506225520 | 64 | 0 | 1.0 | 6.0 | 0.00 | 0.01 | 0.01 | 71 | 1013.9 |
| 20260506225016 | 64 | 0 | 1.0 | 3.0 | 0.00 | 0.01 | 0.01 | 70 | 1014.0 |
| 20260506224535 | 64 | 53 | 1.0 | 3.0 | 0.00 | 0.01 | 0.01 | 71 | 1014.1 |
| 20260506224016 | 64 | 0 | 0.0 | 4.0 | 0.00 | 0.01 | 0.01 | 70 | 1014.0 |
| 20260506223516 | 65 | 70 | 0.0 | 4.0 | 0.00 | 0.01 | 0.01 | 69 | 1013.9 |
| 20260506223047 | 65 | 39 | 1.0 | 5.0 | 0.00 | 0.01 | 0.01 | 69 | 1013.7 |
| 20260506222516 | 64 | 63 | 1.0 | 5.0 | 0.00 | 0.01 | 0.01 | 69 | 1013.6 |
| 20260506222016 | 64 | 355 | 2.0 | 6.0 | 0.00 | 0.01 | 0.01 | 68 | 1013.7 |
| 20260506221535 | 65 | 32 | 2.0 | 6.0 | 0.00 | 0.01 | 0.01 | 68 | 1013.7 |
| 20260506221019 | 66 | 24 | 2.0 | 5.0 | 0.00 | 0.01 | 0.01 | 68 | 1013.8 |
| 20260506220518 | 65 | 308 | 3.0 | 5.0 | 0.00 | 0.01 | 0.01 | 68 | 1013.8 |
| 20260506220038 | 64 | 288 | 1.0 | 5.0 | 0.00 | 0.01 | 0.01 | 69 | 1013.7 |
| 20260506215518 | 64 | 63 | 1.0 | 6.0 | 0.00 | 0.01 | 0.01 | 69 | 1013.8 |
| 20260506215015 | 64 | 0 | 1.0 | 6.0 | 0.00 | 0.01 | 0.01 | 68 | 1013.9 |
| 20260506214532 | 65 | 355 | 1.0 | 6.0 | 0.00 | 0.01 | 0.01 | 69 | 1014.0 |
| 20260506214016 | 64 | 0 | 1.0 | 6.0 | 0.00 | 0.01 | 0.01 | 70 | 1013.9 |
| 20260506213520 | 65 | 92 | 2.0 | 6.0 | 0.00 | 0.01 | 0.01 | 69 | 1013.9 |
| 20260506213045 | 64 | 338 | 1.0 | 5.0 | 0.00 | 0.01 | 0.01 | 69 | 1014.1 |
| 20260506212516 | 64 | 44 | 1.0 | 7.0 | 0.00 | 0.01 | 0.01 | 71 | 1014.2 |
| 20260506212016 | 63 | 40 | 2.0 | 7.0 | 0.00 | 0.01 | 0.01 | 71 | 1014.0 |
| 20260506211547 | 63 | 65 | 1.0 | 5.0 | 0.00 | 0.01 | 0.01 | 71 | 1014.2 |
| 20260506211016 | 63 | 344 | 1.0 | 8.0 | 0.00 | 0.01 | 0.01 | 69 | 1014.2 |
| 20260506210516 | 63 | 71 | 2.0 | 9.0 | 0.00 | 0.01 | 0.01 | 71 | 1014.2 |
| 20260506210036 | 62 | 74 | 3.0 | 9.0 | 0.00 | 0.01 | 0.01 | 71 | 1014.3 |
| 20260506205516 | 62 | 344 | 2.0 | 5.0 | 0.00 | 0.01 | 0.01 | 72 | 1014.2 |
| 20260506205016 | 61 | 0 | 2.0 | 6.0 | 0.00 | 0.01 | 0.01 | 74 | 1014.2 |
| 20260506204540 | 61 | 0 | 1.0 | 6.0 | 0.00 | 0.01 | 0.01 | 73 | 1014.3 |
| 20260506204015 | 61 | 360 | 1.0 | 7.0 | 0.00 | 0.01 | 0.01 | 73 | 1014.5 |
| 20260506203515 | 61 | 35 | 1.0 | 7.0 | 0.00 | 0.01 | 0.01 | 73 | 1014.2 |
| 20260506203038 | 61 | 315 | 2.0 | 9.0 | 0.00 | 0.01 | 0.01 | 74 | 1014.1 |
| 20260506202518 | 61 | 355 | 3.0 | 9.0 | 0.00 | 0.01 | 0.01 | 73 | 1014.7 |
| 20260506202016 | 61 | 319 | 2.0 | 9.0 | 0.00 | 0.01 | 0.01 | 71 | 1014.6 |
| 20260506201551 | 62 | 67 | 2.0 | 10.0 | 0.00 | 0.01 | 0.01 | 73 | 1014.2 |
| 20260506201016 | 62 | 119 | 3.0 | 10.0 | 0.00 | 0.01 | 0.01 | 73 | 1014.6 |
| 20260506200516 | 62 | 348 | 4.0 | 10.0 | 0.00 | 0.01 | 0.01 | 72 | 1014.6 |
| 20260506200033 | 62 | 338 | 3.0 | 8.0 | 0.00 | 0.01 | 0.01 | 73 | 1014.7 |
| 20260506195517 | 62 | 355 | 2.0 | 8.0 | 0.00 | 0.01 | 0.01 | 73 | 1014.6 |
| 20260506195016 | 61 | 17 | 2.0 | 9.0 | 0.00 | 0.01 | 0.01 | 74 | 1014.8 |
| 20260506194531 | 60 | 345 | 4.0 | 9.0 | 0.00 | 0.01 | 0.01 | 73 | 1015.0 |
| 20260506194016 | 61 | 19 | 3.0 | 8.0 | 0.00 | 0.01 | 0.01 | 72 | 1015.0 |
| 20260506193516 | 60 | 27 | 2.0 | 8.0 | 0.00 | 0.01 | 0.01 | 75 | 1015.0 |
| 20260506193034 | 60 | 53 | 1.0 | 8.0 | 0.00 | 0.01 | 0.01 | 76 | 1015.0 |
| 20260506192516 | 59 | 308 | 2.0 | 8.0 | 0.00 | 0.01 | 0.01 | 76 | 1015.1 |
| 20260506192016 | 59 | 325 | 1.0 | 5.0 | 0.00 | 0.01 | 0.01 | 76 | 1015.2 |
| 20260506191538 | 59 | 286 | 2.0 | 5.0 | 0.00 | 0.01 | 0.01 | 77 | 1015.2 |
| 20260506191020 | 59 | 331 | 2.0 | 5.0 | 0.00 | 0.01 | 0.01 | 77 | 1015.3 |
| 20260506190520 | 58 | 65 | 1.0 | 8.0 | 0.00 | 0.01 | 0.01 | 78 | 1015.3 |
| 20260506190031 | 57 | 334 | 1.0 | 8.0 | 0.00 | 0.01 | 0.01 | 79 | 1015.5 |
| 20260506185516 | 57 | 347 | 2.0 | 8.0 | 0.00 | 0.01 | 0.01 | 78 | 1015.6 |
| 20260506185018 | 57 | 74 | 1.0 | 7.0 | 0.00 | 0.01 | 0.01 | 78 | 1015.4 |
| 20260506184535 | 57 | 5 | 1.0 | 6.0 | 0.00 | 0.01 | 0.01 | 79 | 1015.5 |
| 20260506184017 | 57 | 39 | 2.0 | 6.0 | 0.00 | 0.01 | 0.01 | 79 | 1015.6 |
| 20260506183516 | 56 | 341 | 2.0 | 5.0 | 0.00 | 0.01 | 0.01 | 79 | 1015.5 |
| 20260506183041 | 56 | 336 | 1.0 | 5.0 | 0.00 | 0.01 | 0.01 | 81 | 1015.6 |
| 20260506182515 | 55 | 334 | 1.0 | 5.0 | 0.00 | 0.01 | 0.01 | 81 | 1015.6 |
| 20260506182017 | 55 | 11 | 1.0 | 7.0 | 0.00 | 0.01 | 0.01 | 82 | 1015.9 |
| 20260506181532 | 54 | 319 | 1.0 | 10.0 | 0.00 | 0.01 | 0.01 | 82 | 1015.8 |
| 20260506181017 | 54 | 5 | 2.0 | 12.0 | 0.00 | 0.01 | 0.01 | 83 | 1015.8 |
| 20260506180516 | 54 | 340 | 4.0 | 12.0 | 0.00 | 0.01 | 0.01 | 82 | 1015.6 |
| 20260506180036 | 54 | 309 | 4.0 | 12.0 | 0.00 | 0.01 | 0.01 | 82 | 1015.4 |
| 20260506175519 | 54 | 309 | 4.0 | 12.0 | 0.00 | 0.01 | 0.01 | 83 | 1015.2 |
| 20260506175016 | 54 | 310 | 4.0 | 11.0 | 0.00 | 0.01 | 0.01 | 83 | 1015.3 |
| 20260506174540 | 53 | 329 | 4.0 | 12.0 | 0.00 | 0.01 | 0.01 | 85 | 1015.2 |
| 20260506174016 | 53 | 325 | 4.0 | 12.0 | 0.00 | 0.01 | 0.01 | 84 | 1015.2 |
| 20260506173516 | 53 | 292 | 5.0 | 11.0 | 0.00 | 0.01 | 0.01 | 84 | 1015.2 |
| 20260506173034 | 53 | 338 | 3.0 | 12.0 | 0.00 | 0.01 | 0.01 | 86 | 1015.2 |
| 20260506172516 | 53 | 319 | 5.0 | 12.0 | 0.00 | 0.01 | 0.01 | 84 | 1015.3 |
| 20260506172018 | 52 | 352 | 3.0 | 14.0 | 0.00 | 0.01 | 0.01 | 86 | 1015.3 |
| 20260506171533 | 53 | 352 | 5.0 | 14.0 | 0.00 | 0.01 | 0.01 | 86 | 1015.2 |
| 20260506171019 | 53 | 334 | 3.0 | 12.0 | 0.00 | 0.01 | 0.01 | 87 | 1015.2 |
| 20260506170519 | 52 | 319 | 4.0 | 12.0 | 0.00 | 0.01 | 0.01 | 87 | 1015.2 |
| 20260506170036 | 52 | 302 | 4.0 | 11.0 | 0.00 | 0.01 | 0.01 | 87 | 1015.4 |
| 20260506165515 | 51 | 315 | 4.0 | 11.0 | 0.00 | 0.01 | 0.01 | 87 | 1015.4 |
| 20260506165016 | 51 | 29 | 2.0 | 11.0 | 0.00 | 0.01 | 0.01 | 88 | 1015.4 |
| 20260506164531 | 51 | 290 | 5.0 | 11.0 | 0.00 | 0.01 | 0.01 | 87 | 1015.6 |
| 20260506164021 | 52 | 5 | 1.0 | 8.0 | 0.00 | 0.01 | 0.01 | 88 | 1015.4 |
| 20260506163515 | 51 | 339 | 1.0 | 9.0 | 0.00 | 0.01 | 0.01 | 88 | 1015.4 |
| 20260506163032 | 51 | 333 | 2.0 | 10.0 | 0.00 | 0.01 | 0.01 | 88 | 1015.2 |
| 20260506162518 | 51 | 355 | 2.0 | 10.0 | 0.00 | 0.01 | 0.01 | 87 | 1015.1 |
| 20260506162021 | 51 | 290 | 3.0 | 10.0 | 0.00 | 0.01 | 0.01 | 87 | 1015.0 |
| 20260506161530 | 51 | 296 | 3.0 | 11.0 | 0.00 | 0.01 | 0.01 | 88 | 1015.3 |
| 20260506161018 | 51 | 344 | 3.0 | 11.0 | 0.00 | 0.01 | 0.01 | 88 | 1015.0 |
| 20260506160520 | 51 | 5 | 2.0 | 7.0 | 0.00 | 0.01 | 0.01 | 87 | 1014.9 |
| 20260506160039 | 51 | 339 | 2.0 | 7.0 | 0.00 | 0.01 | 0.01 | 87 | 1015.1 |
| 20260506155520 | 51 | 355 | 2.0 | 7.0 | 0.00 | 0.01 | 0.01 | 87 | 1015.4 |
| 20260506155016 | 52 | 336 | 1.0 | 10.0 | 0.00 | 0.01 | 0.01 | 86 | 1015.3 |
| 20260506154534 | 52 | 55 | 2.0 | 13.0 | 0.00 | 0.01 | 0.01 | 86 | 1015.0 |
| 20260506154016 | 52 | 350 | 2.0 | 14.0 | 0.00 | 0.01 | 0.01 | 86 | 1014.3 |
| 20260506153515 | 53 | 340 | 4.0 | 14.0 | 0.01 | 0.01 | 0.01 | 86 | 1014.3 |
| 20260506153031 | 53 | 80 | 6.0 | 14.0 | 0.01 | 0.01 | 0.01 | 87 | 1013.8 |
| 20260506152515 | 52 | 320 | 6.0 | 14.0 | 0.01 | 0.01 | 0.01 | 89 | 1013.5 |
| 20260506152015 | 51 | 345 | 4.0 | 14.0 | 0.01 | 0.01 | 0.01 | 89 | 1013.7 |
| 20260506151533 | 51 | 325 | 2.0 | 9.0 | 0.01 | 0.01 | 0.01 | 89 | 1014.1 |
| 20260506151015 | 51 | 0 | 1.0 | 9.0 | 0.01 | 0.01 | 0.01 | 89 | 1014.7 |
| 20260506150517 | 51 | 355 | 2.0 | 9.0 | 0.01 | 0.01 | 0.01 | 89 | 1014.7 |
| 20260506150029 | 51 | 360 | 2.0 | 8.0 | 0.01 | 0.01 | 0.01 | 89 | 1014.7 |
| 20260506145515 | 51 | 0 | 2.0 | 8.0 | 0.01 | 0.01 | 0.01 | 89 | 1014.9 |
| 20260506145015 | 51 | 0 | 1.0 | 8.0 | 0.01 | 0.01 | 0.01 | 89 | 1015.0 |
| 20260506144543 | 51 | 335 | 2.0 | 8.0 | 0.01 | 0.01 | 0.01 | 89 | 1014.3 |
| 20260506144018 | 50 | 38 | 1.0 | 8.0 | 0.01 | 0.01 | 0.01 | 89 | 1014.1 |
| 20260506143517 | 50 | 78 | 2.0 | 11.0 | 0.00 | 0.00 | 0.00 | 89 | 1015.0 |
| 20260506143034 | 50 | 319 | 2.0 | 11.0 | 0.00 | 0.00 | 0.00 | 89 | 1015.3 |
| 20260506142520 | 50 | 344 | 3.0 | 11.0 | 0.00 | 0.00 | 0.00 | 88 | 1015.6 |
| 20260506142019 | 50 | 329 | 3.0 | 8.0 | 0.00 | 0.00 | 0.00 | 88 | 1016.2 |
| 20260506141534 | 50 | 322 | 2.0 | 5.0 | 0.00 | 0.00 | 0.00 | 88 | 1016.3 |
| 20260506141019 | 50 | 326 | 1.0 | 4.0 | 0.00 | 0.00 | 0.00 | 88 | 1015.9 |
| 20260506140516 | 50 | 0 | 1.0 | 6.0 | 0.00 | 0.00 | 0.00 | 87 | 1015.4 |
| 20260506140030 | 50 | 317 | 2.0 | 8.0 | 0.00 | 0.00 | 0.00 | 86 | 1015.2 |
| 20260506135516 | 50 | 68 | 2.0 | 9.0 | 0.00 | 0.00 | 0.00 | 85 | 1014.9 |
| 20260506135015 | 50 | 336 | 3.0 | 10.0 | 0.00 | 0.00 | 0.00 | 84 | 1016.1 |
| 20260506134532 | 50 | 339 | 4.0 | 10.0 | 0.00 | 0.00 | 0.00 | 84 | 1016.7 |
| 20260506134017 | 50 | 300 | 4.0 | 10.0 | 0.00 | 0.00 | 0.00 | 84 | 1015.5 |
| 20260506133516 | 50 | 333 | 2.0 | 9.0 | 0.00 | 0.00 | 0.00 | 84 | 1013.9 |
| 20260506133033 | 50 | 19 | 1.0 | 9.0 | 0.00 | 0.00 | 0.00 | 84 | 1014.1 |
| 20260506132516 | 50 | 355 | 2.0 | 11.0 | 0.00 | 0.00 | 0.00 | 83 | 1014.3 |
| 20260506132020 | 50 | 346 | 3.0 | 13.0 | 0.00 | 0.00 | 0.00 | 83 | 1014.3 |
| 20260506131534 | 50 | 349 | 4.0 | 15.0 | 0.00 | 0.00 | 0.00 | 83 | 1014.9 |
| 20260506131016 | 51 | 317 | 8.0 | 15.0 | 0.00 | 0.00 | 0.00 | 82 | 1015.5 |
| 20260506130520 | 51 | 291 | 5.0 | 12.0 | 0.00 | 0.00 | 0.00 | 82 | 1015.4 |
| 20260506130036 | 51 | 346 | 3.0 | 11.0 | 0.00 | 0.00 | 0.00 | 83 | 1014.7 |
| 20260506125516 | 51 | 313 | 3.0 | 11.0 | 0.00 | 0.00 | 0.00 | 82 | 1014.3 |
| 20260506125015 | 51 | 351 | 3.0 | 11.0 | 0.00 | 0.00 | 0.00 | 82 | 1014.2 |
| 20260506124532 | 51 | 313 | 2.0 | 10.0 | 0.00 | 0.00 | 0.00 | 82 | 1013.7 |
| 20260506124015 | 51 | 49 | 2.0 | 10.0 | 0.00 | 0.00 | 0.00 | 82 | 1013.6 |
| 20260506123516 | 51 | 329 | 3.0 | 12.0 | 0.00 | 0.00 | 0.00 | 82 | 1013.3 |
| 20260506123033 | 51 | 350 | 3.0 | 12.0 | 0.00 | 0.00 | 0.00 | 82 | 1013.3 |
| 20260506122516 | 51 | 340 | 3.0 | 12.0 | 0.00 | 0.00 | 0.00 | 82 | 1013.3 |
| 20260506122018 | 51 | 360 | 2.0 | 11.0 | 0.00 | 0.00 | 0.00 | 82 | 1013.3 |
| 20260506121533 | 51 | 302 | 3.0 | 14.0 | 0.00 | 0.00 | 0.00 | 82 | 1013.1 |
| 20260506121016 | 51 | 5 | 3.0 | 14.0 | 0.00 | 0.00 | 0.00 | 82 | 1013.0 |
| 20260506120517 | 51 | 47 | 5.0 | 13.0 | 0.00 | 0.00 | 0.00 | 82 | 1013.0 |
| 20260506120040 | 52 | 323 | 4.0 | 12.0 | 0.00 | 0.00 | 0.00 | 82 | 1012.9 |
| 20260506115515 | 52 | 324 | 2.0 | 10.0 | 0.00 | 0.00 | 0.00 | 82 | 1013.0 |
| 20260506115015 | 52 | 317 | 3.0 | 10.0 | 0.00 | 0.00 | 0.00 | 82 | 1012.9 |
| 20260506114533 | 52 | 343 | 4.0 | 13.0 | 0.00 | 0.00 | 0.00 | 82 | 1012.9 |
| 20260506114015 | 52 | 309 | 4.0 | 13.0 | 0.00 | 0.00 | 0.00 | 82 | 1013.0 |
| 20260506113516 | 53 | 355 | 5.0 | 13.0 | 0.00 | 0.00 | 0.00 | 81 | 1013.1 |
| 20260506113034 | 53 | 343 | 2.0 | 8.0 | 0.00 | 0.00 | 0.00 | 81 | 1013.0 |
| 20260506112517 | 53 | 342 | 1.0 | 11.0 | 0.00 | 0.00 | 0.00 | 81 | 1012.9 |
| 20260506112018 | 53 | 29 | 3.0 | 11.0 | 0.00 | 0.00 | 0.00 | 81 | 1012.9 |
| 20260506111531 | 53 | 24 | 5.0 | 11.0 | 0.00 | 0.00 | 0.00 | 81 | 1012.9 |
| 20260506111018 | 53 | 328 | 4.0 | 12.0 | 0.00 | 0.00 | 0.00 | 81 | 1012.9 |
| 20260506110515 | 53 | 59 | 4.0 | 12.0 | 0.00 | 0.00 | 0.00 | 81 | 1012.9 |
| 20260506110033 | 54 | 326 | 5.0 | 12.0 | 0.00 | 0.00 | 0.00 | 81 | 1012.7 |
| 20260506105515 | 54 | 355 | 4.0 | 11.0 | 0.00 | 0.00 | 0.00 | 80 | 1012.5 |
| 20260506105016 | 54 | 355 | 2.0 | 9.0 | 0.00 | 0.00 | 0.00 | 81 | 1012.4 |
| 20260506104533 | 54 | 323 | 1.0 | 11.0 | 0.00 | 0.00 | 0.00 | 81 | 1012.2 |
| 20260506104015 | 54 | 319 | 3.0 | 11.0 | 0.00 | 0.00 | 0.00 | 81 | 1012.3 |
| 20260506103516 | 54 | 345 | 3.0 | 11.0 | 0.00 | 0.00 | 0.00 | 81 | 1012.1 |
| 20260506103040 | 54 | 302 | 3.0 | 11.0 | 0.00 | 0.00 | 0.00 | 81 | 1011.9 |
| 20260506102516 | 54 | 333 | 3.0 | 10.0 | 0.00 | 0.00 | 0.00 | 81 | 1012.0 |
| 20260506102016 | 55 | 325 | 3.0 | 8.0 | 0.00 | 0.00 | 0.00 | 82 | 1012.0 |
| 20260506101532 | 55 | 338 | 2.0 | 8.0 | 0.00 | 0.00 | 0.00 | 82 | 1011.7 |
| 20260506101017 | 55 | 309 | 3.0 | 8.0 | 0.00 | 0.00 | 0.00 | 82 | 1011.6 |
| 20260506100515 | 55 | 349 | 2.0 | 8.0 | 0.00 | 0.00 | 0.00 | 82 | 1011.6 |
| 20260506100031 | 55 | 19 | 2.0 | 8.0 | 0.00 | 0.00 | 0.00 | 82 | 1011.6 |
| 20260506095515 | 55 | 342 | 1.0 | 8.0 | 0.00 | 0.00 | 0.00 | 82 | 1011.6 |
| 20260506095015 | 55 | 314 | 3.0 | 8.0 | 0.00 | 0.00 | 0.00 | 82 | 1011.5 |
| 20260506094533 | 55 | 5 | 1.0 | 8.0 | 0.00 | 0.00 | 0.00 | 82 | 1011.5 |
| 20260506094016 | 55 | 337 | 3.0 | 8.0 | 0.00 | 0.00 | 0.00 | 82 | 1011.3 |
| 20260506093518 | 55 | 310 | 3.0 | 8.0 | 0.00 | 0.00 | 0.00 | 82 | 1011.3 |
| 20260506093030 | 55 | 328 | 1.0 | 8.0 | 0.00 | 0.00 | 0.00 | 83 | 1011.2 |
| 20260506092516 | 55 | 315 | 2.0 | 9.0 | 0.00 | 0.00 | 0.00 | 83 | 1011.1 |
| 20260506092016 | 55 | 348 | 3.0 | 9.0 | 0.00 | 0.00 | 0.00 | 82 | 1011.0 |
| 20260506091534 | 55 | 330 | 2.0 | 8.0 | 0.00 | 0.00 | 0.00 | 83 | 1011.1 |
| 20260506091018 | 55 | 51 | 2.0 | 9.0 | 0.00 | 0.00 | 0.00 | 83 | 1011.0 |
| 20260506090515 | 55 | 341 | 2.0 | 9.0 | 0.00 | 0.00 | 0.00 | 83 | 1011.0 |
| 20260506090043 | 55 | 298 | 3.0 | 9.0 | 0.00 | 0.00 | 0.00 | 83 | 1011.0 |
| 20260506085517 | 55 | 313 | 2.0 | 9.0 | 0.00 | 0.00 | 0.00 | 83 | 1011.1 |
| 20260506085015 | 55 | 325 | 3.0 | 9.0 | 0.00 | 0.00 | 0.00 | 83 | 1011.2 |
| 20260506084534 | 55 | 0 | 2.0 | 9.0 | 0.00 | 0.00 | 0.00 | 83 | 1011.1 |
| 20260506084015 | 55 | 333 | 2.0 | 8.0 | 0.00 | 0.00 | 0.00 | 83 | 1011.2 |
| 20260506083516 | 55 | 321 | 1.0 | 8.0 | 0.00 | 0.00 | 0.00 | 83 | 1011.1 |
| 20260506083032 | 56 | 19 | 2.0 | 6.0 | 0.00 | 0.00 | 0.00 | 83 | 1011.1 |
| 20260506082514 | 56 | 321 | 2.0 | 9.0 | 0.00 | 0.00 | 0.00 | 83 | 1011.1 |
| 20260506082017 | 56 | 321 | 3.0 | 9.0 | 0.00 | 0.00 | 0.00 | 82 | 1011.1 |
| 20260506081537 | 56 | 321 | 2.0 | 7.0 | 0.00 | 0.00 | 0.00 | 82 | 1011.0 |
| 20260506081015 | 56 | 333 | 2.0 | 5.0 | 0.00 | 0.00 | 0.00 | 82 | 1011.1 |
| 20260506080516 | 56 | 332 | 2.0 | 6.0 | 0.00 | 0.00 | 0.00 | 82 | 1011.0 |
| 20260506073515 | 56 | 355 | 3.0 | 9.0 | 0.00 | 0.00 | 0.00 | 83 | 1011.0 |
| 20260506073031 | 56 | 360 | 2.0 | 8.0 | 0.00 | 0.00 | 0.00 | 84 | 1010.8 |
| 20260506072516 | 56 | 338 | 3.0 | 6.0 | 0.00 | 0.00 | 0.00 | 84 | 1010.8 |
| 20260506072015 | 56 | 327 | 2.0 | 5.0 | 0.00 | 0.00 | 0.00 | 84 | 1010.9 |
| 20260506071530 | 56 | 360 | 2.0 | 8.0 | 0.00 | 0.00 | 0.00 | 84 | 1010.9 |
| 20260506071015 | 56 | 310 | 2.0 | 8.0 | 0.00 | 0.00 | 0.00 | 84 | 1010.8 |
| 20260506070515 | 56 | 336 | 3.0 | 8.0 | 0.00 | 0.00 | 0.00 | 84 | 1011.0 |
| 20260506062515 | 57 | 339 | 0.0 | 4.0 | 0.00 | 0.00 | 0.00 | 82 | 1010.1 |
| 20260506062016 | 57 | 16 | 1.0 | 4.0 | 0.00 | 0.00 | 0.00 | 82 | 1010.2 |
| 20260506061546 | 57 | 0 | 1.0 | 4.0 | 0.00 | 0.00 | 0.00 | 82 | 1010.1 |
| 20260506061015 | 57 | 0 | 0.0 | 4.0 | 0.00 | 0.00 | 0.00 | 81 | 1010.1 |
| 20260506060519 | 57 | 355 | 1.0 | 4.0 | 0.00 | 0.00 | 0.00 | 81 | 1010.1 |